User: anonymous   Login
Location: Unspecified
(0.0000°N, 0.0000°E)
Time: 07:12:09
(UTC+02:00)
Language:

Meteor 2-8 Rocket - Orbit

View from above orbital plane
View from above orbital plane
View from above satellite
View from above satellite

Ground track
Ground track

The orbit data is extracted from the following two-line orbital elements,

1 13114U 82025B   14295.83625279  .00000053  00000-0  33579-4 0  5377
2 13114 082.5400 253.2662 0014101 355.4567 065.1204 13.84630691646408
Epoch (UTC): 22 October 2014 20:04:12
Eccentricity: 0.0014101
inclination: 82.5400°
perigee height: 937 km
apogee height: 958 km
right ascension of ascending node: 253.2662°
argument of perigee: 355.4567°
revolutions per day: 13.84630691
mean anomaly at epoch: 65.1204°
orbit number at epoch: 64640

The dashed part of the orbit path shows where the satellite is in the earth's shadow,  

DLR